Regional Weather Roundup
Issued by NWS

Home | Current Version | Previous Version | Graphics & Text | Print | Product List | Glossary On
Versions: 1 2 3 4 5 6 7 8 9 10 11 12 13 14 15 16 17 18 19 20 21 22 23 24 25 26 27 28 29 30 31 32 33 34 35 36 37 38 39 40 41 42 43 44 45 46 47 48 49 50
000
ASUS43 KDTX 180701
RWRMI
MICHIGAN HOURLY REGIONAL WEATHER ROUNDUP
NATIONAL WEATHER SERVICE DETROIT/PONTIAC MI
200 AM EST THU DEC 18 2014

NOTE: "FAIR" INDICATES FEW OR NO CLOUDS BELOW 12,000 FEET WITH NO
SIGNIFICANT WEATHER AND/OR OBSTRUCTION TO VISIBILITY.

MIZ047>049-052>055-059>063-066>070-074>076-081>083-180800-
SOUTHEAST LOWER MICHIGAN

CITY           SKY/WX    TMP DP  RH WIND       PRES   REMARKS
ADRIAN         CLOUDY    28  20  71 NW12      30.22R WCI  18
ALMA           CLOUDY    28  26  91 W8        30.18R WCI  20
ANN ARBOR      CLOUDY    29  20  69 W13G21    30.18R WCI  19
BAD AXE        CLOUDY    28  25  87 W8        30.12R WCI  20
CARO           LGT SNOW  29  28  96 W10       30.13R WCI  20
DETROIT CITY   CLOUDY    31  20  63 W14G20    30.18R WCI  21
DETROIT        CLOUDY    29  20  69 W14       30.19R WCI  18
FLINT          CLOUDY    30  23  75 W15       30.16R WCI  19
GROSSE ILE     CLOUDY    30  21  69 W9G18     30.17S WCI  22
HILLSDALE      CLOUDY    28  22  80 W9        30.19S WCI  19
HOWELL         CLOUDY    27  23  85 W10       30.17R WCI  18

CITY           SKY/WX    TMP DP  RH WIND       PRES   REMARKS
JACKSON        CLOUDY    28  20  71 W8        30.19S WCI  20
LAMBERTVILLE   CLOUDY    32  21  64 W7        30.22R WCI  26
LANSING        CLOUDY    28  22  78 W13       30.20R WCI  17
LAPEER         CLOUDY    28  26  96 W9        30.14R FOG     WCI  19
MASON          CLOUDY    28  22  78 W9G16     30.19S WCI  19
MONROE         CLOUDY    28  21  74 W14       30.18F WCI  17
MT. CLEMENS    CLOUDY    30  24  78 W13       30.14R WCI  20
PONTIAC        CLOUDY    28  21  75 W13       30.14R WCI  17
PORT HOPE        N/A     29  23  78 NW10      30.09R WCI  20
PORT HURON     CLOUDY    28  25  86 W7        30.15R FOG     WCI  21
TRI CITIES     CLOUDY    30  26  85 W12       30.16R WCI  20
TROY           CLOUDY    31  22  70 W10       30.18R WCI  22
SAGINAW HB     CLOUDY    30  30 100 W10       30.15R WCI  21
$$
MIZ043>046-050>051-056>058-064>065-071>073-077>080-180800-
SOUTHWEST LOWER MICHIGAN

CITY           SKY/WX    TMP DP  RH WIND       PRES   REMARKS
BATTLE CREEK   CLOUDY    29  21  72 W8        30.21S WCI  21
BENTON HARBOR  CLOUDY    28  22  78 W6        30.25S WCI  22
BIG RAPIDS     CLOUDY    29  29  98 W7        30.16S WCI  22
COLDWATER      CLOUDY    28  22  77 W7        30.21S WCI  21
FREMONT        CLOUDY    30  26  85 W6        30.20S WCI  24
HOLLAND        CLOUDY    32  23  69 W8        30.23F WCI  25
GRAND RAPIDS   CLOUDY    29  23  78 W6        30.20F WCI  23
IONIA          CLOUDY    30  24  79 W12       30.19S WCI  20
KALAMAZOO      CLOUDY    29  21  72 NW6       30.22S WCI  23
LUDINGTON      LGT SNOW  32  29  89 NW7       30.21R WCI  26
MARSHALL       CLOUDY    27  21  76 W7        30.21R WCI  20
MOUNT PLEASANT CLOUDY    30  27  90 W6        30.16R WCI  24
MUSKEGON       CLOUDY    32  24  72 NW8       30.22S WCI  25
SOUTH HAVEN    CLOUDY    31  22  70 NW6       30.24S WCI  25
$$
MIZ016>042-180800-
NORTHERN LOWER MICHIGAN

CITY           SKY/WX    TMP DP  RH WIND       PRES   REMARKS
ALPENA         CLOUDY    25  20  81 NW14      30.12R WCI  13
BEAVER ISLAND  CLOUDY    25  22  89 N5        30.18R WCI  19
BELLAIRE       CLOUDY    28  25  87 NW3       30.17R
CADILLAC       CLOUDY    28  26  91 NW8       30.12R WCI  20
CHARLEVOIX     CLOUDY    27  24  88 N9        30.18R WCI  18
FRANKFORT      CLOUDY    31  29  92 N7        30.18R WCI  24
GAYLORD        CLOUDY    22  21  96 CALM      30.10R
GRAYLING       CLOUDY    28  26  92 NW8       30.12R WCI  20
HARBOR SPRINGS MOCLDY    24  19  84 N7        30.14S WCI  15
HOUGHTON LAKE  CLOUDY    26  23  88 NW8       30.12R WCI  18
MANISTEE       CLOUDY    32  27  80 NW10      30.19S WCI  24
OSCODA         CLOUDY    26  23  89 W7        30.11R WCI  18
PELLSTON       CLOUDY    23  19  85 NW7       30.15S WCI  15
ROGERS CITY    CLOUDY    25  23  90 N9        30.13R WCI  16
TRAVERSE CITY  CLOUDY    30  25  81 N9        30.16R WCI  22
$$
MIZ007>008-015-180800-
EASTERN UPPER MICHIGAN

CITY           SKY/WX    TMP DP  RH WIND       PRES   REMARKS
KINROSS        CLEAR     18  16  93 N8        30.15R WCI   7
MACKINAC ISLAN CLOUDY    23  22  96 N9G18     30.15R WCI  13
NEWBERRY       CLOUDY    21  19  93 N12G17    30.17R WCI   9
S. S. MARIE    CLEAR     18  12  77 N9        30.18R WCI   7
$$
MIZ004>006-011>014-085-180800-
CENTRAL UPPER MICHIGAN

CITY           SKY/WX    TMP DP  RH WIND       PRES   REMARKS
MANISTIQUE     CLOUDY    25  22  91 N7        30.19R WCI  17
ESCANABA       CLOUDY    27  19  74 N9G16     30.22R WCI  17
MENOMINEE      CLOUDY    27  21  80 N8        30.23S WCI  18
SAWYER-GWINN   CLOUDY    25  21  86 N12       30.21R WCI  14
$$
MIZ001>003-009>011-084-180800-
WESTERN UPPER MICHIGAN

CITY           SKY/WX    TMP DP  RH WIND       PRES   REMARKS
IRON MOUNTAIN  CLOUDY    24  18  77 N12       30.22R WCI  13
HOUGHTON       PTCLDY    13  11  92 CALM      30.26S
COPPER HARBOR    N/A     27  18  69 E14       30.29S WCI  16
IRONWOOD       CLOUDY    23  19  86 NE3       30.25S
$$

ABBREVIATIONS USED IN REMARKS
   TC - TEMPERATURE IN CELSIUS
  WCI - WIND CHILL INDEX
   HX - HEAT INDEX
  VSB - VISIBILITY




USA.gov is the U.S. government's official web portal to all federal, state and local government web resources and services.